This is the latest recevied weather packets stored in our database for station/object SQ9MHX-13. If no packets are shown the sender has not sent any weather packets the latest 10 day(s).
| Time | Temp. | Humidity | Pressure | Rain* | Wind** | Luminosity | Snow |
|---|---|---|---|---|---|---|---|
| 1777891386 | 25° C | 25% | 947.1 hPa | - | 0 m/s | - | - |
| 1777891086 | 27.22° C | 22% | 946.6 hPa | - | 0 m/s | - | - |
| 1777890787 | 26.11° C | 24% | 947.2 hPa | - | 0 m/s | - | - |
| 1777890488 | 26.11° C | 22% | 947.5 hPa | - | 0 m/s | - | - |
| 1777890188 | 25° C | 25% | 947.7 hPa | - | 0 m/s | - | - |
| 1777889889 | 25° C | 23% | 947.9 hPa | - | 0 m/s | - | - |
| 1777889589 | 25° C | 24% | 948.1 hPa | - | 0 m/s | - | - |
| 1777889290 | 23.89° C | 27% | 948.9 hPa | - | 0 m/s | - | - |
| 1777888991 | 23.89° C | 25% | 949 hPa | - | 0 m/s | - | - |
| 1777888691 | 23.89° C | 22% | 949.7 hPa | - | 0 m/s | - | - |
| 1777888392 | 23.89° C | 24% | 949.7 hPa | - | 0 m/s | - | - |
| 1777888093 | 23.89° C | 27% | 950.1 hPa | - | 0 m/s | - | - |
| 1777887494 | 23.89° C | 24% | 950.3 hPa | - | 0 m/s | - | - |
| 1777887195 | 23.89° C | 26% | 950.6 hPa | - | 0 m/s | - | - |
| 1777886896 | 23.89° C | 24% | 950.7 hPa | - | 0 m/s | - | - |
| 1777886597 | 23.89° C | 28% | 950.7 hPa | - | 0 m/s | - | - |
| 1777885101 | 22.78° C | 28% | 951.7 hPa | - | 0 m/s | - | - |
| 1777884502 | 22.78° C | 27% | 952.5 hPa | - | 0 m/s | - | - |
| 1777884203 | 22.22° C | 29% | 953.1 hPa | - | 0 m/s | - | - |
| 1777883605 | 22.22° C | 28% | 953.1 hPa | - | 0 m/s | - | - |
| 1777883305 | 22.22° C | 28% | 953.3 hPa | - | 0 m/s | - | - |
| 1777883006 | 22.22° C | 31% | 953.5 hPa | - | 0 m/s | - | - |
| 1777882707 | 21.11° C | 30% | 953.8 hPa | - | 0 m/s | - | - |
| 1777882109 | 21.11° C | 32% | 954.3 hPa | - | 0 m/s | - | - |
| 1777881211 | 20° C | 33% | 954.9 hPa | - | 0 m/s | - | - |
* Rain since midnight (hover to see other rain measurements)
** Current wind speed in m/s (hover to see current wind gust speed)